This demonstration page uses our WeatherBlox Daily Observations layout. Learn more.

Left ArrowRight Arrow

34.74481, -87.66753

Hourly Observations for April 29, 2017

Temp ( °F °C ) Dew Point ( °F °C ) Humidity (%) Winds ( mph kmh ) Pressure ( in mb ) Visibility ( mi km ) Precip ( " mm )
12:53 am 00:53 Mostly Clear 76 24.4 67 19.4 74 74 S 13 20 29.95 1014 10 16 0.00 0.00
1:53 am 01:53 Partly Cloudy 76 24.4 68 20 77 77 SSW 14 22 29.89 1012 10 16 0.00 0.00
2:01 am 02:01 Mostly Cloudy 76 24.4 68 20 77 77 S 13 20 29.88 1012 10 16 0.00 0.00
2:53 am 02:53 Cloudy 76 24.4 68 20 77 77 SSW 17 28 29.91 1013 10 16 0.00 0.00
3:53 am 03:53 Cloudy 76 24.4 67 19.4 74 74 SSW 9 15 29.93 1013 10 16 0.00 0.00
4:53 am 04:53 Cloudy 75 23.9 67 19.4 76 76 S 10 17 29.93 1014 10 16 0.00 0.00
5:53 am 05:53 Mostly Cloudy 74 23.3 67 19.4 79 79 S 7 11 29.95 1014 9 14 0.00 0.00
6:38 am 06:38 Mostly Sunny 73 22.8 67 19.4 81 81 S 7 11 29.97 1015 7 11 0.00 0.00
6:53 am 06:53 Sunny 73 22.8 67 19.4 81 81 SE 5 7 29.97 1015 7 11 0.00 0.00
7:53 am 07:53 Mostly Cloudy 74 23.3 68 20 82 82 SSE 9 15 29.98 1015 7 11 0.00 0.00
8:01 am 08:01 Mostly Cloudy 74 23.3 68 20 82 82 SSE 12 19 29.97 1015 8 13 0.00 0.00
8:13 am 08:13 Partly Cloudy 75 23.9 68 20 79 79 SSE 12 19 29.97 1015 8 13 0.00 0.00
8:26 am 08:26 Mostly Cloudy 76 24.4 68 20 77 77 SSE 14 22 29.97 1015 9 14 0.00 0.00
8:53 am 08:53 Partly Cloudy 77 25 68 20 74 74 SSE 12 19 29.97 1015 9 14 0.00 0.00
9:53 am 09:53 Sunny 81 27.2 68 20 65 65 SSE 13 20 29.98 1015 10 16 0.00 0.00
10:53 am 10:53 Sunny 83 28.3 69 20.6 63 63 S 14 22 30.00 1016 10 16 0.00 0.00
11:53 am 11:53 Mostly Cloudy 84 28.9 68 20 59 59 S 12 19 29.99 1016 10 16 0.00 0.00
12:53 pm 12:53 Partly Cloudy 86 30 67 19.4 53 53 S 16 26 29.97 1015 10 16 0.00 0.00
1:53 pm 13:53 Mostly Cloudy 84 28.9 66 18.9 55 55 S 16 26 29.97 1015 10 16 0.00 0.00
2:53 pm 14:53 Mostly Sunny 86 30 67 19.4 53 53 S 21 33 29.96 1014 10 16 0.00 0.00
3:53 pm 15:53 Mostly Cloudy 86 30 68 20 55 55 S 10 17 29.94 1014 10 16 0.00 0.00
4:53 pm 16:53 Mostly Sunny 86 30 67 19.4 53 53 S 15 24 29.93 1014 10 16 0.00 0.00
5:53 pm 17:53 Sunny 83 28.3 65 18.3 55 55 S 12 19 29.93 1013 10 16 0.00 0.00
6:53 pm 18:53 Sunny 82 27.8 65 18.3 56 56 S 9 15 29.92 1013 10 16 0.00 0.00
7:53 pm 19:53 Clear 77 25 64 17.8 64 64 SSE 8 13 29.93 1014 10 16 0.00 0.00
8:53 pm 20:53 Clear 77 25 63 17.2 62 62 SSE 9 15 29.94 1014 10 16 0.00 0.00
9:53 pm 21:53 Clear 75 23.9 63 17.2 66 66 SE 8 13 29.95 1014 10 16 0.00 0.00
10:53 pm 22:53 Cloudy 77 25 63 17.2 62 62 SSE 10 17 29.95 1014 10 16 0.00 0.00
11:53 pm 23:53 Cloudy 75 23.9 63 17.2 66 66 SSE 9 15 29.95 1014 10 16 0.00 0.00

Powered by AerisWeather